Wind_Speed
27 28 26 24 22 20 18 16 15 15 19 20 17 15 16 15 16 18 17 16 15 14 13 12 12 12 12 11 11 10 9 9 9 9 9 9 9 10 11 11 12 13 13 13
29 27 24 24 24 23 23 21 19 19 21 21 19 17 16 17 18 18 18 17 17 16 15 13 13 13 13 13 12 11 11 11 10 10 10 10 10 10 10 11 13 14 14 15
28 24 25 27 26 26 25 23 21 20 21 21 20 18 17 17 18 18 18 18 17 16 15 13 13 13 13 13 13 13 12 12 11 11 11 11 11 11 10 11 12 14 15 15
28 26 27 27 27 26 25 23 22 22 22 21 19 17 18 19 20 19 18 18 17 17 16 14 13 14 14 14 14 12 13 13 13 12 12 11 12 12 12 12 12 14 14 14
29 28 28 28 27 26 24 23 23 23 23 21 20 19 19 21 21 18 17 18 17 17 16 15 14 14 14 14 13 13 14 14 14 14 13 13 13 12 12 12 13 14 15 15
29 28 28 27 27 26 24 24 24 23 23 23 20 19 20 21 21 19 16 16 17 17 16 15 14 14 14 13 13 14 14 15 15 14 14 14 14 14 13 13 14 14 15 15
29 29 29 28 27 27 26 25 23 22 21 20 16 19 21 22 22 19 16 16 17 16 16 15 14 14 14 14 14 15 15 15 15 15 14 14 14 14 14 14 14 15 15 16
27 28 28 27 27 26 26 25 22 17 15 14 16 20 21 21 21 19 17 17 17 17 18 17 15 14 15 15 15 16 16 16 16 15 15 14 14 14 14 14 15 15 16 16
23 24 25 25 25 26 25 25 21 19 15 14 16 19 21 21 20 20 18 17 17 17 18 16 15 15 15 15 16 16 16 16 16 15 15 14 14 14 14 15 16 15 16 16
21 19 22 24 25 26 25 23 24 25 21 19 19 21 21 20 18 18 17 17 17 17 16 15 15 16 16 16 16 17 17 16 16 16 15 15 15 15 15 16 16 16 16 17
24 20 20 24 27 25 26 26 25 24 22 19 19 20 18 20 18 17 17 17 16 16 17 16 16 16 16 16 16 16 16 16 16 15 15 15 15 14 15 15 15 16 15 15
26 23 21 23 23 23 25 26 26 27 25 22 20 19 18 18 18 15 16 16 16 17 17 16 16 16 16 15 16 16 16 16 16 15 15 15 15 15 15 16 15 15 16 17
29 27 24 23 23 24 26 26 26 26 25 24 19 20 20 18 16 15 16 15 16 16 16 16 15 15 15 15 15 15 15 16 16 16 16 16 15 15 15 16 16 16 16 16
30 31 28 23 20 20 22 25 26 27 26 24 21 22 20 19 17 16 17 16 16 15 15 15 14 15 15 14 14 15 15 16 16 16 16 15 15 15 16 16 16 16 17 17
32 32 31 26 22 21 21 23 25 26 26 23 21 21 22 21 19 17 17 17 16 15 15 15 15 15 15 15 15 15 15 15 15 15 16 15 15 15 16 16 16 17 17 17
32 32 32 30 25 23 22 21 24 25 25 24 23 23 23 23 21 18 17 17 17 16 15 15 15 15 15 15 14 14 14 14 14 14 14 14 14 14 15 16 17 17 17 17
30 32 31 29 26 24 25 25 25 25 26 25 26 28 26 24 23 21 19 18 18 17 16 16 16 16 15 15 15 14 14 14 13 12 13 13 14 14 14 15 15 15 15 16
30 31 29 27 27 28 25 23 24 25 27 28 28 30 26 23 22 22 20 19 18 18 18 17 17 16 15 15 14 14 14 13 12 12 12 13 13 13 14 14 15 15 15 15
30 30 29 28 27 26 25 25 25 27 28 30 31 30 27 25 23 22 22 20 20 19 19 18 17 16 15 15 15 14 14 14 14 14 13 14 14 14 14 15 15 15 15 15
28 29 29 29 27 26 26 26 27 29 30 31 32 29 27 25 25 25 23 22 21 20 19 18 17 17 16 15 15 15 14 14 14 15 15 14 14 14 14 15 15 15 15 15
29 30 30 29 29 28 27 27 27 30 32 31 28 27 26 25 25 24 24 23 22 21 20 19 18 17 17 16 16 15 15 15 15 15 15 15 15 15 15 15 15 16 16 16
29 29 31 30 31 30 30 30 30 30 29 27 26 26 26 25 24 24 24 23 22 21 20 20 19 18 18 17 17 17 17 16 16 16 16 16 16 15 15 15 16 16 16 15
31 32 33 34 34 32 30 30 29 29 27 26 26 26 26 26 26 24 23 23 22 21 21 20 20 19 19 19 19 18 18 17 17 17 17 17 16 16 16 16 16 16 16 16
34 34 34 34 34 31 30 29 27 27 26 25 26 27 26 26 24 24 24 24 23 22 21 21 20 20 19 19 19 19 19 18 18 17 17 17 17 17 17 18 17 17 17 17
34 33 34 34 33 30 30 28 27 26 26 25 26 26 26 26 26 26 25 24 23 22 22 21 20 20 20 20 19 19 19 19 18 18 18 18 18 18 18 18 18 18 18 19
32 33 32 33 32 31 29 27 27 27 27 26 26 25 25 25 25 25 25 24 23 23 22 22 21 20 20 21 21 21 20 19 19 19 18 19 19 19 18 18 18 18 18 18
Wind_Direction
237 236 236 238 237 232 222 230 236 240 241 251 257 249 252 252 253 261 264 267 273 275 278 283 290 296 299 298 296 298 295 295 289 285 283 276 274 272 266 259 251 246 243 244
236 236 235 233 231 227 223 226 226 234 243 249 253 251 248 251 252 258 262 262 265 269 272 279 285 289 291 293 292 292 291 295 290 284 280 276 273 271 265 258 254 248 246 248
237 235 233 231 229 227 226 229 228 233 242 249 250 253 254 253 253 258 261 263 263 267 271 275 281 284 285 287 287 286 287 293 293 284 281 277 274 274 268 261 254 246 244 247
233 229 231 230 229 229 230 229 229 232 239 248 250 253 257 257 258 259 261 264 264 267 272 276 279 281 283 282 282 281 284 289 291 287 284 278 274 272 267 260 258 252 248 247
231 230 230 231 230 230 230 229 230 233 238 240 243 249 253 257 259 256 257 259 263 266 270 273 275 277 281 278 278 281 285 287 288 288 286 280 277 273 270 263 261 258 254 251
229 231 232 231 230 227 226 228 230 233 239 243 239 244 250 255 261 255 254 258 261 266 270 269 271 274 278 275 278 282 285 285 286 284 282 278 276 275 273 265 258 258 257 254
226 228 231 229 228 225 225 225 228 233 240 249 246 244 247 253 257 254 256 260 261 267 270 270 271 272 276 275 280 282 282 283 285 285 283 277 275 273 270 265 259 257 256 256
229 228 230 229 227 227 226 225 224 228 245 251 243 240 243 251 256 258 252 256 260 263 266 267 269 271 273 276 281 281 280 281 283 284 282 278 273 269 268 265 261 257 256 257
226 233 230 230 226 223 222 219 215 217 222 242 245 237 240 248 256 262 261 259 260 263 260 263 266 269 271 275 280 281 279 281 282 282 280 276 274 271 267 265 262 263 260 258
210 225 227 228 225 221 218 216 210 213 221 232 241 245 245 252 257 260 260 258 258 264 264 265 266 269 271 275 279 280 278 278 278 279 278 275 271 270 269 266 264 262 262 260
200 207 218 226 225 219 213 211 211 216 220 227 241 241 238 245 250 255 260 257 258 263 266 265 265 266 269 273 278 281 278 277 276 275 275 273 272 269 266 265 265 261 261 261
199 201 210 223 227 219 215 214 213 215 218 218 235 244 240 239 247 256 261 260 260 262 265 265 266 269 269 272 275 278 277 277 274 273 275 275 272 268 264 264 264 262 263 263
199 200 202 213 223 217 213 213 212 217 220 221 232 251 249 248 250 256 260 259 259 260 260 261 262 268 273 275 276 278 276 276 273 271 274 275 272 268 265 265 262 262 265 263
202 203 201 207 219 224 220 214 212 212 216 221 226 243 244 249 251 257 259 257 258 258 258 259 262 267 271 274 278 281 280 277 276 272 272 274 272 270 268 266 263 262 265 264
205 207 204 197 202 217 222 216 214 213 215 218 227 239 248 249 253 258 257 257 256 254 256 260 265 267 270 273 279 283 282 280 278 273 270 270 271 273 270 268 267 265 264 265
207 207 206 201 198 208 215 212 211 214 215 216 223 229 236 247 251 255 257 257 255 254 257 261 265 267 269 271 276 282 284 280 277 277 275 275 273 273 273 272 271 267 265 266
209 208 205 204 205 208 213 210 210 211 214 216 227 231 232 241 246 251 253 254 253 254 258 262 265 269 271 272 276 279 280 278 275 279 280 278 275 277 276 276 276 273 270 268
208 208 207 204 210 215 212 211 212 215 217 219 228 234 233 237 243 247 250 251 252 253 257 261 265 268 270 272 273 274 276 277 278 283 281 278 279 279 279 277 278 277 275 273
210 206 205 207 210 217 216 211 211 213 215 219 225 232 235 236 242 246 249 250 251 254 257 260 264 268 270 271 271 273 275 277 280 283 281 278 278 281 282 279 279 280 279 276
211 207 206 208 211 212 213 213 212 216 220 223 226 229 234 237 240 243 246 248 250 254 257 260 263 267 270 271 272 272 272 275 278 281 282 281 279 281 282 282 282 279 277 277
211 210 209 210 215 218 213 211 216 221 225 229 230 230 233 235 239 242 245 247 249 253 255 258 261 265 267 270 273 272 272 275 276 278 281 281 281 282 283 283 282 280 278 276
213 214 213 214 217 219 217 217 219 225 229 232 234 234 235 238 240 241 244 246 248 251 253 257 259 262 265 268 271 273 273 274 275 276 279 280 281 282 282 281 281 281 279 276
214 215 216 218 221 221 222 225 229 229 231 232 234 234 236 239 242 243 243 246 249 253 254 257 258 261 264 266 269 273 275 275 274 275 276 278 280 280 280 282 282 279 278 280
217 218 221 225 228 229 230 228 227 230 233 234 236 237 239 241 242 241 244 246 251 252 255 258 258 261 264 265 268 272 274 274 275 276 276 276 278 280 282 283 282 281 279 279
215 219 223 227 227 225 228 227 226 230 234 237 239 240 241 241 241 241 243 247 251 252 254 257 259 261 263 264 267 272 274 273 275 277 276 276 276 278 282 284 284 283 282 282
218 219 223 222 223 225 226 229 230 231 233 235 239 239 240 241 240 240 243 248 250 252 255 258 260 262 264 266 268 271 275 274 275 276 275 275 277 278 280 281 284 285 286 285
Height
5850 5854 5858 5862 5866 5870 5873 5877 5880 5883 5882 5882 5883 5884 5884 5883 5884 5884 5883 5883 5882 5883 5883 5884 5884 5884 5884 5884 5884 5884 5884 5884 5883 5883 5883 5883 5884 5885 5885 5886 5888 5890 5891 5893
5845 5849 5854 5857 5860 5864 5868 5871 5875 5878 5878 5879 5880 5880 5881 5881 5881 5881 5881 5880 5880 5880 5881 5882 5882 5882 5882 5882 5882 5882 5882 5882 5881 5881 5881 5881 5882 5882 5883 5884 5886 5887 5889 5890
5839 5846 5848 5851 5855 5859 5863 5867 5871 5874 5874 5874 5876 5877 5878 5878 5878 5878 5878 5877 5877 5877 5878 5879 5879 5879 5880 5880 5880 5880 5880 5880 5879 5879 5879 5879 5879 5880 5881 5882 5883 5884 5886 5887
5834 5839 5842 5846 5850 5854 5858 5863 5866 5869 5870 5871 5872 5874 5875 5874 5874 5875 5875 5874 5875 5875 5875 5876 5877 5877 5877 5877 5877 5877 5877 5877 5877 5876 5876 5876 5877 5877 5878 5879 5880 5882 5883 5884
5829 5834 5837 5841 5846 5850 5854 5858 5861 5863 5865 5867 5869 5871 5872 5870 5870 5870 5871 5872 5872 5872 5872 5872 5873 5874 5874 5874 5874 5875 5874 5874 5874 5873 5873 5873 5874 5875 5875 5876 5877 5879 5880 5882
5824 5828 5832 5836 5841 5844 5849 5853 5855 5858 5860 5862 5864 5867 5867 5866 5865 5865 5866 5868 5868 5868 5869 5869 5870 5870 5871 5871 5871 5872 5871 5871 5870 5870 5870 5871 5871 5872 5872 5873 5874 5875 5877 5878
5818 5822 5826 5831 5835 5839 5844 5848 5852 5854 5855 5858 5861 5863 5863 5862 5861 5861 5862 5864 5865 5865 5865 5866 5867 5867 5867 5867 5868 5868 5868 5868 5867 5867 5867 5867 5868 5868 5869 5870 5871 5872 5874 5875
5813 5817 5822 5826 5830 5835 5839 5844 5849 5852 5855 5857 5858 5858 5859 5858 5858 5858 5859 5861 5862 5862 5862 5862 5863 5864 5864 5864 5864 5864 5864 5864 5864 5864 5864 5864 5864 5865 5866 5866 5867 5869 5870 5872
5810 5814 5818 5821 5825 5830 5834 5838 5845 5849 5852 5853 5853 5853 5853 5854 5855 5856 5857 5858 5859 5859 5858 5858 5860 5861 5861 5861 5861 5861 5861 5861 5860 5860 5860 5861 5861 5862 5862 5863 5864 5865 5867 5868
5806 5811 5814 5817 5821 5825 5831 5835 5839 5843 5846 5849 5850 5849 5849 5850 5851 5853 5854 5855 5855 5855 5854 5855 5856 5857 5858 5858 5858 5858 5857 5857 5857 5857 5857 5857 5858 5858 5859 5860 5861 5862 5863 5864
5800 5806 5811 5813 5815 5821 5826 5830 5835 5839 5842 5845 5846 5847 5843 5845 5847 5849 5851 5851 5852 5852 5853 5853 5853 5854 5855 5855 5855 5854 5854 5854 5854 5854 5854 5854 5854 5854 5855 5856 5857 5858 5859 5860
5795 5801 5806 5809 5812 5817 5821 5826 5830 5834 5837 5839 5840 5842 5839 5840 5843 5845 5846 5847 5849 5849 5849 5850 5851 5851 5851 5851 5851 5851 5851 5851 5850 5850 5851 5851 5850 5851 5852 5853 5854 5854 5855 5856
5790 5796 5801 5805 5810 5812 5815 5820 5825 5830 5833 5835 5838 5838 5836 5838 5839 5841 5843 5845 5845 5846 5846 5846 5847 5848 5848 5848 5848 5848 5847 5847 5847 5847 5847 5847 5847 5847 5848 5849 5849 5850 5851 5852
5785 5790 5796 5802 5805 5809 5811 5815 5820 5824 5828 5831 5834 5834 5834 5834 5836 5838 5840 5841 5842 5843 5843 5843 5844 5845 5845 5845 5845 5845 5844 5844 5844 5844 5844 5844 5844 5844 5844 5845 5845 5846 5847 5848
5779 5784 5790 5795 5800 5804 5807 5811 5815 5819 5824 5828 5831 5831 5830 5832 5832 5834 5836 5838 5839 5840 5841 5841 5842 5842 5842 5843 5843 5842 5841 5841 5840 5840 5840 5840 5840 5840 5841 5841 5842 5842 5843 5843
5774 5779 5785 5790 5794 5799 5802 5806 5811 5815 5819 5823 5825 5826 5826 5827 5828 5830 5832 5834 5836 5837 5838 5838 5839 5839 5839 5840 5840 5839 5838 5837 5837 5837 5837 5837 5837 5837 5837 5837 5838 5838 5838 5839
5769 5774 5779 5785 5790 5794 5798 5802 5806 5811 5815 5818 5820 5821 5820 5823 5825 5828 5830 5831 5832 5834 5835 5835 5836 5836 5836 5836 5836 5836 5835 5835 5834 5834 5834 5834 5834 5834 5834 5834 5834 5834 5834 5835
5764 5769 5775 5780 5786 5789 5795 5798 5802 5806 5809 5812 5813 5814 5816 5819 5822 5824 5826 5827 5829 5830 5831 5832 5833 5833 5833 5833 5833 5833 5832 5832 5832 5832 5831 5831 5831 5831 5831 5831 5831 5831 5831 5831
5759 5765 5770 5775 5779 5784 5789 5792 5796 5800 5803 5805 5807 5809 5813 5815 5818 5820 5821 5823 5825 5827 5828 5829 5829 5830 5830 5830 5830 5830 5829 5829 5829 5829 5829 5829 5828 5828 5828 5828 5828 5828 5828 5828
5755 5760 5765 5770 5774 5778 5784 5786 5790 5795 5796 5798 5801 5804 5808 5811 5814 5816 5818 5819 5821 5822 5824 5825 5825 5826 5826 5827 5827 5826 5826 5826 5826 5826 5826 5826 5825 5825 5825 5825 5824 5824 5824 5824
5751 5755 5760 5764 5768 5771 5775 5779 5784 5788 5789 5792 5795 5798 5803 5806 5809 5811 5813 5814 5816 5818 5819 5820 5821 5822 5823 5823 5823 5823 5823 5823 5823 5823 5823 5823 5822 5822 5822 5821 5821 5820 5820 5821
5746 5751 5755 5759 5762 5767 5768 5773 5777 5780 5783 5786 5790 5794 5798 5802 5804 5805 5807 5809 5811 5813 5814 5816 5817 5818 5818 5819 5819 5819 5819 5819 5820 5820 5819 5819 5819 5819 5818 5818 5817 5817 5817 5817
5741 5745 5748 5752 5756 5759 5762 5766 5770 5774 5777 5781 5785 5789 5792 5795 5798 5799 5802 5804 5806 5808 5810 5811 5812 5813 5814 5814 5815 5815 5815 5815 5815 5815 5815 5815 5815 5815 5814 5814 5814 5813 5813 5813
5734 5739 5743 5746 5750 5754 5757 5760 5765 5769 5773 5777 5780 5783 5787 5790 5792 5794 5797 5800 5801 5803 5805 5806 5807 5808 5809 5809 5810 5810 5810 5811 5811 5811 5811 5811 5811 5811 5810 5810 5809 5809 5809 5809
5726 5732 5736 5740 5744 5748 5751 5755 5760 5764 5768 5772 5775 5778 5781 5784 5787 5790 5792 5794 5796 5799 5800 5801 5802 5803 5804 5805 5805 5806 5806 5806 5806 5806 5806 5806 5806 5806 5806 5805 5805 5805 5804 5804
5721 5726 5730 5733 5738 5743 5748 5752 5756 5760 5763 5767 5770 5773 5776 5779 5781 5783 5786 5789 5791 5793 5795 5796 5797 5798 5799 5800 5800 5801 5801 5801 5801 5801 5801 5801 5801 5801 5801 5801 5800 5800 5799 5799